TimeCDT,TemperatureF,Dew PointF,Humidity,Sea Level PressureIn,VisibilityMPH,Wind Direction,Wind SpeedMPH,Gust SpeedMPH,PrecipitationIn,Events,Conditions,WindDirDegrees,DateUTC
12:15 AM,72.0,70.7,96,30.01,7.0,Calm,Calm,-,N/A,,Clear,0,2013-08-30 05:15:00
12:55 AM,71.6,70.2,95,30.01,7.0,Calm,Calm,-,N/A,,Clear,0,2013-08-30 05:55:00
1:15 AM,71.6,70.2,95,30.01,7.0,Calm,Calm,-,N/A,,Clear,0,2013-08-30 06:15:00
1:35 AM,71.6,69.8,94,30.01,7.0,Calm,Calm,-,N/A,,Clear,0,2013-08-30 06:35:00
1:55 AM,70.9,69.8,96,30.01,5.0,Calm,Calm,-,N/A,,Clear,0,2013-08-30 06:55:00
2:15 AM,70.7,69.8,97,30.00,5.0,Calm,Calm,-,N/A,,Clear,0,2013-08-30 07:15:00
2:35 AM,71.1,69.6,95,30.00,7.0,Calm,Calm,-,N/A,,Clear,0,2013-08-30 07:35:00
2:55 AM,70.9,69.4,95,30.00,7.0,Calm,Calm,-,N/A,,Clear,0,2013-08-30 07:55:00
3:15 AM,70.7,69.8,97,30.00,5.0,Calm,Calm,-,N/A,,Clear,0,2013-08-30 08:15:00
3:35 AM,70.7,69.8,97,30.00,7.0,Calm,Calm,-,N/A,,Scattered Clouds,0,2013-08-30 08:35:00
3:55 AM,69.8,69.1,98,30.00,4.0,Calm,Calm,-,N/A,,Scattered Clouds,0,2013-08-30 08:55:00
4:15 AM,70.2,69.3,97,30.00,7.0,Calm,Calm,-,N/A,,Mostly Cloudy,0,2013-08-30 09:15:00
4:35 AM,72.9,71.4,95,30.00,7.0,Calm,Calm,-,N/A,,Overcast,0,2013-08-30 09:35:00
4:55 AM,71.8,70.3,95,30.00,7.0,Calm,Calm,-,N/A,,Scattered Clouds,0,2013-08-30 09:55:00
5:15 AM,70.7,69.8,97,30.00,5.0,Calm,Calm,-,N/A,,Clear,0,2013-08-30 10:15:00
5:35 AM,71.4,70.3,96,30.01,5.0,Calm,Calm,-,N/A,,Clear,0,2013-08-30 10:35:00
5:55 AM,70.7,69.8,97,30.01,5.0,Calm,Calm,-,N/A,,Clear,0,2013-08-30 10:55:00
6:15 AM,70.0,69.3,98,30.02,3.0,Calm,Calm,-,N/A,,Scattered Clouds,0,2013-08-30 11:15:00
6:35 AM,69.8,69.3,98,30.02,3.0,Calm,Calm,-,N/A,,Clear,0,2013-08-30 11:35:00
6:55 AM,70.0,69.4,98,30.03,4.0,Calm,Calm,-,N/A,,Clear,0,2013-08-30 11:55:00
7:15 AM,70.3,69.6,98,30.03,4.0,Calm,Calm,-,N/A,,Clear,0,2013-08-30 12:15:00
7:35 AM,71.1,70.2,97,30.03,5.0,Calm,Calm,-,N/A,,Clear,0,2013-08-30 12:35:00
7:55 AM,72.7,71.2,95,30.04,5.0,Calm,Calm,-,N/A,,Clear,0,2013-08-30 12:55:00
9:15 AM,80.1,72.9,79,30.05,10.0,NNW,3.5,-,N/A,,Clear,340,2013-08-30 14:15:00
9:35 AM,81.3,72.9,75,30.05,10.0,NNW,3.5,-,N/A,,Clear,330,2013-08-30 14:35:00
9:55 AM,82.4,72.5,72,30.05,10.0,North,4.6,-,N/A,,Clear,350,2013-08-30 14:55:00
10:15 AM,83.3,72.1,69,30.05,10.0,NW,5.8,-,N/A,,Scattered Clouds,310,2013-08-30 15:15:00
10:35 AM,82.8,71.2,68,30.05,10.0,WNW,5.8,-,N/A,,Mostly Cloudy,300,2013-08-30 15:35:00
10:55 AM,84.6,72.1,66,30.05,10.0,NNW,5.8,-,N/A,,Mostly Cloudy,340,2013-08-30 15:55:00
11:15 AM,84.0,70.2,63,30.05,10.0,West,3.5,-,N/A,,Mostly Cloudy,270,2013-08-30 16:15:00
11:35 AM,84.9,70.3,61,30.04,10.0,NW,4.6,-,N/A,,Mostly Cloudy,320,2013-08-30 16:35:00
11:55 AM,84.6,70.7,63,30.04,10.0,Calm,Calm,-,N/A,,Scattered Clouds,0,2013-08-30 16:55:00
12:15 PM,85.3,69.6,59,30.03,10.0,Calm,Calm,-,N/A,,Scattered Clouds,0,2013-08-30 17:15:00
12:35 PM,86.0,69.3,57,30.03,10.0,NW,5.8,-,N/A,,Scattered Clouds,310,2013-08-30 17:35:00
12:55 PM,86.5,68.5,55,30.02,10.0,North,3.5,-,N/A,,Mostly Cloudy,350,2013-08-30 17:55:00
1:15 PM,87.1,67.5,52,30.01,10.0,Calm,Calm,-,N/A,,Mostly Cloudy,0,2013-08-30 18:15:00
1:35 PM,87.3,68.2,53,30.01,10.0,Calm,Calm,-,N/A,,Mostly Cloudy,0,2013-08-30 18:35:00
1:55 PM,88.2,68.2,51,30.00,10.0,SW,4.6,-,N/A,,Mostly Cloudy,220,2013-08-30 18:55:00
2:15 PM,87.6,66.9,50,29.99,10.0,Calm,Calm,-,N/A,,Scattered Clouds,0,2013-08-30 19:15:00
2:35 PM,88.5,67.5,50,29.98,10.0,Calm,Calm,-,N/A,,Clear,0,2013-08-30 19:35:00
2:55 PM,88.2,67.8,51,29.98,10.0,Calm,Calm,-,N/A,,Clear,0,2013-08-30 19:55:00
3:15 PM,88.5,67.8,50,29.97,10.0,Calm,Calm,-,N/A,,Clear,0,2013-08-30 20:15:00
3:35 PM,89.1,67.5,49,29.96,10.0,Calm,Calm,-,N/A,,Clear,0,2013-08-30 20:35:00
3:55 PM,88.7,66.0,47,29.96,10.0,Calm,Calm,-,N/A,,Clear,0,2013-08-30 20:55:00
4:15 PM,88.3,67.5,50,29.95,10.0,Calm,Calm,-,N/A,,Clear,0,2013-08-30 21:15:00
4:35 PM,89.1,68.4,50,29.95,10.0,West,3.5,-,N/A,,Clear,260,2013-08-30 21:35:00
4:55 PM,88.7,66.7,48,29.94,10.0,Calm,Calm,-,N/A,,Clear,0,2013-08-30 21:55:00
5:15 PM,88.7,67.6,50,29.94,10.0,Calm,Calm,-,N/A,,Clear,0,2013-08-30 22:15:00
5:35 PM,88.3,67.1,49,29.94,10.0,Calm,Calm,-,N/A,,Clear,0,2013-08-30 22:35:00
5:55 PM,88.2,68.4,52,29.94,10.0,Calm,Calm,-,N/A,,Clear,0,2013-08-30 22:55:00
6:15 PM,87.3,71.2,59,29.94,10.0,Calm,Calm,-,N/A,,Clear,0,2013-08-30 23:15:00
6:35 PM,84.0,72.0,67,29.93,10.0,Calm,Calm,-,N/A,,Clear,0,2013-08-30 23:35:00
6:55 PM,82.0,72.1,72,29.93,10.0,Calm,Calm,-,N/A,,Clear,0,2013-08-30 23:55:00
7:15 PM,80.8,74.1,80,29.94,10.0,Calm,Calm,-,N/A,,Clear,0,2013-08-31 00:15:00
7:35 PM,79.0,74.1,85,29.94,10.0,Calm,Calm,-,N/A,,Clear,0,2013-08-31 00:35:00
7:55 PM,77.9,72.5,83,29.94,10.0,Calm,Calm,-,N/A,,Clear,0,2013-08-31 00:55:00
8:15 PM,77.7,72.5,84,29.94,10.0,Calm,Calm,-,N/A,,Clear,0,2013-08-31 01:15:00
8:35 PM,76.1,72.3,88,29.94,10.0,Calm,Calm,-,N/A,,Clear,0,2013-08-31 01:35:00
8:55 PM,76.1,71.1,84,29.94,10.0,Calm,Calm,-,N/A,,Clear,0,2013-08-31 01:55:00
9:15 PM,75.2,70.2,84,29.94,10.0,Calm,Calm,-,N/A,,Clear,0,2013-08-31 02:15:00
9:35 PM,75.0,71.4,89,29.95,10.0,Calm,Calm,-,N/A,,Clear,0,2013-08-31 02:35:00
9:55 PM,74.3,71.1,90,29.95,10.0,Calm,Calm,-,N/A,,Clear,0,2013-08-31 02:55:00
10:15 PM,73.9,71.6,92,29.95,7.0,Calm,Calm,-,N/A,,Clear,0,2013-08-31 03:15:00
10:35 PM,73.6,71.2,92,29.95,7.0,Calm,Calm,-,N/A,,Clear,0,2013-08-31 03:35:00
10:55 PM,74.1,71.8,92,29.94,7.0,Calm,Calm,-,N/A,,Clear,0,2013-08-31 03:55:00
11:15 PM,73.4,71.4,93,29.94,7.0,Calm,Calm,-,N/A,,Clear,0,2013-08-31 04:15:00
11:35 PM,72.7,70.9,94,29.94,7.0,Calm,Calm,-,N/A,,Clear,0,2013-08-31 04:35:00
11:55 PM,72.9,71.2,95,29.93,7.0,Calm,Calm,-,N/A,,Clear,0,2013-08-31 04:55:00